Regional Weather Roundup
Issued by NWS Upton, NY

Current Version | Previous Version | Graphics & Text | Print | Product List | Glossary On
Versions: 1 2 3 4 5 6 7 8 9 10 11 12 13 14 15 16 17 18 19 20 21 22 23 24 25 26 27 28 29 30 31 32 33 34 35 36 37 38 39 40 41 42 43 44 45 46 47 48 49 50
000
ASUS41 KOKX 290805
RWROKX

REGIONAL WEATHER ROUNDUP
NATIONAL WEATHER SERVICE NEW YORK NY
300 AM EST MON DEC 29 2014

NOTE: "FAIR" INDICATES FEW OR NO CLOUDS BELOW 12,000 FEET WITH NO
SIGNIFICANT WEATHER AND/OR OBSTRUCTIONS TO VISIBILITY.

NYZ071-072-176-178-NJZ106-104-290900-
NEW YORK CITY METRO AREA


CITY           SKY/WX    TMP DP  RH WIND       PRES   REMARKS
CENTRAL PARK   CLOUDY    40  22  48 VRB5      30.15R
LAGUARDIA APRT CLOUDY    40  25  55 NW13G20   30.13R WCI  32
KENNEDY INTL   CLOUDY    42  24  49 NW15      30.14R
NEWARK/LIBERTY CLOUDY    40  23  50 NW13      30.14R WCI  32
BRNX BOT. GARD   N/A    N/A N/A N/A NW10      30.15R
TETERBORO      CLOUDY    40  23  50 NW8       30.13R WCI  34
$$

NYZ177-179-078>081-290900-
LONG ISLAND NEW YORK

CITY           SKY/WX    TMP DP  RH WIND       PRES   REMARKS
FARMINGDALE    CLOUDY    41  26  55 N10       30.12R
ISLIP          CLOUDY    40  28  62 N8        30.09R WCI  34
SHIRLEY        CLOUDY    39  26  59 N10       30.11R WCI  32
WESTHAMPTON    CLOUDY    39  27  62 N7        30.11R WCI  34
MONTAUK POINT    N/A     41  26  55 NW14      30.10R
$$

NYZ052-065-067-290900-
HUDSON VALLEY

CITY           SKY/WX    TMP DP  RH WIND       PRES   REMARKS
WHITE PLAINS   MOCLDY    37  25  61 NW8       30.10R WCI  31
NEWBURGH       CLEAR     34  25  69 W9        30.12R WCI  26
MONTGOMERY     MOCLDY    31  24  75 SW3       30.10S
POUGHKEEPSIE   PTCLDY    32  25  75 W5        30.11R WCI  27
ALBANY         MOCLDY    35  24  64 NW8       30.10R WCI  29
$$

NJZ001-105-106-008-010-013-015-019>022-104-290900-
NEW JERSEY

CITY           SKY/WX    TMP DP  RH WIND       PRES   REMARKS
NEWARK/LIBERTY CLOUDY    40  23  50 NW13      30.14R WCI  32
TETERBORO      CLOUDY    40  23  50 NW8       30.13R WCI  34
CALDWELL       CLOUDY    38  22  52 NW6       30.14R WCI  33
MORRISTOWN     CLOUDY    41  23  48 NW5       30.13S
SOMERVILLE     CLOUDY    38  24  57 NW3       30.12R
SUSSEX         MOCLDY    31  24  75 CALM      30.12R
ANDOVER        NOT AVBL
TRENTON        CLOUDY    40  25  55 N12       30.14R WCI  33
MILLVILLE      CLOUDY    43  39  86 NW7       30.13R
ATLANTIC CITY  CLOUDY    43  39  86 N7        30.12R
WRIGHTSTOWN    CLOUDY    41  29  64 N9        30.11R
TOMS RIVER     CLOUDY    43  32  65 N9        30.14R
BELMAR         CLOUDY    41  27  56 N13       30.12R
$$

PAZ047>061-062-071-290900-
EASTERN PENNSYLVANIA

CITY           SKY/WX    TMP DP  RH WIND       PRES   REMARKS
PHILADELPHIA   CLOUDY    43  31  62 N13       30.15R
ALLENTOWN      CLOUDY    35  24  64 CALM      30.14R
SCRANTON       MOCLDY    33  21  61 SW7       30.11R WCI  27
$$

CTZ002-004>006-009-010-012-RIZ004-006-007-MAZ004-011-015-290900-
SOUTHERN NEW ENGLAND
 IN CT

CITY           SKY/WX    TMP DP  RH WIND       PRES   REMARKS
BRADLEY INTL   PTCLDY    35  23  61 CALM      30.08R
HARTFORD       PTCLDY    33  23  66 VRB6      30.10R WCI  28
DANBURY        PTCLDY    31  22  69 CALM      30.11R
WTRBRY/OXFORD  PTCLDY    30  18  59 CALM      30.08R
BRIDGEPORT     CLOUDY    39  25  57 W3        30.11R
MERIDEN        PTCLDY    30  25  81 CALM      30.11R
NEW HAVEN      CLOUDY    41  24  51 NW5       30.10S
CHESTER        FAIR      36  27  69 NW3       30.09R
GROTON         CLOUDY    37  24  59 NW9       30.08R WCI  30
WILLIMANTIC    PTCLDY    35  22  58 W3        30.08R

 IN RI

CITY           SKY/WX    TMP DP  RH WIND       PRES   REMARKS
PROVIDENCE     MOCLDY    37  22  54 NW8       30.07R WCI  31
BLOCK ISLAND   CLOUDY    39  23  52 NW14G20   30.07S WCI  31
WESTERLY       MOCLDY    37  23  56 NW5       30.08R WCI  33

 IN MA

CITY           SKY/WX    TMP DP  RH WIND       PRES   REMARKS
BOSTON         PTCLDY    37  25  61 W9        30.06R WCI  30
WORCESTER      PTCLDY    29  20  69 W7        30.03R WCI  22
WESTFIELD      PTCLDY    29  22  75 S3        30.07S
PROVINCETOWN   PTCLDY    39  28  65 NW16      30.03R WCI  30
NANTUCKET      MOCLDY    41  29  62 NW14      30.04R
$$

ANZ330-335-338-340-345-350-353-355-290900-
COASTAL MARINE OBSERVATIONS


STATION/POSITION TIME  SKY/WX   TEMP    WIND        PRES    VSBY  WAVE
                                AIR SEA DIR/SP/G                  HT/PER
                 (UTC)          (F)     (DEG/KT/KT) (MB)    (MI)  (FT/S)
NY HARB ENTRANCE 0800            42 45  330/ 16/ 19 1019.8          3/ 7
4S FIRE IS       0800               47                N/A           3/ 7
20S FIRE ISLAND  0700            45 49              1018.9          4/ 4
23SW MTP         0800                                 N/A           5/ 4
HUDSON CANYON    0800            47 55  340/ 16/ 19 1018.4          4/ 4
EXECUTION ROCKS  0800            41 42  290/ 12/ 16   N/A
WESTERN LI SOUND 0800            41     310/ 10/ 12   N/A           0
CENTRAL LI SOUND 0700            40 44  330/ 12/ 14   N/A           1/ 3
EASTERN LI SOUND NOT AVBL
ROBBINS REEF     0800            40                 1019.3
$$


>>>>>>>>>>>>>>>>>>>>>>>>>>>> KEY <<<<<<<<<<<<<<<<<<<<<<<<<<<
>                                                          <
>     SKY/WX - SKY CONDITION/PRESENT WEATHER               <
>     TMP    - TEMPERATURE IN FAHRENHEIT                   <
>     DP     - DEWPOINT IN FAHRENHEIT                      <
>     RH     - RELATIVE HUMIDITY IN PERCENT                <
>     WIND   - DIRECTION AND SPEED IN MPH                  <
>     PRES   - MEAN SEA LEVEL PRESSURE IN INCHES OF HG     <
>     WCI    - WIND CHILL INDEX                            <
>     VSB    - VISIBILITY IN MILES                         <
>     HX     - HEAT INDEX                                  <
>     TC     - TEMPERATURE IN CELSIUS                      <
>     VRB    - VARIABLE WIND DIRECTION                     <
>                                                          <
>>>>>>>>>>>>>>>>>>>>>>>>>>>> KEY <<<<<<<<<<<<<<<<<<<<<<<<<<<





USA.gov is the U.S. government's official web portal to all federal, state and local government web resources and services.